Regional Weather Roundup
Issued by NWS

Home | Current Version | Previous Version | Graphics & Text | Print | Product List | Glossary Off
Versions: 1 2 3 4 5 6 7 8 9 10 11 12 13 14 15 16 17 18 19 20 21 22 23 24 25 26 27 28 29 30 31 32 33 34 35 36 37 38 39 40 41 42 43 44 45 46 47 48 49 50

000
ASUS43 KMPX 180810
RWRMN
WEATHER ROUNDUP FOR MINNESOTA
NATIONAL WEATHER SERVICE TWIN CITIES/CHANHASSEN MN
200 AM CST THU JAN 18 2018


NOTE: "FAIR" INDICATES FEW OR NO CLOUDS BELOW 12,000 FEET WITH NO
SIGNIFICANT WEATHER AND/OR OBSTRUCTIONS TO VISIBILITY. N/A MEANS
CURRENT SKY AND/OR WEATHER CONDITIONS ARE NOT AVAILABLE.

MNZ060>063-068>070-180900-
   Twin Cities Metro

CITY           SKY/WX    TMP DP  RH WIND       PRES   REMARKS
TWIN CITIES    FAIR      22  16  78 SW7       30.01F WCI  13
ST PAUL        FAIR      24  16  71 CALM      30.02F
CRYSTAL        FAIR      22  13  68 SW5       29.98F WCI  16
BLAINE         FAIR      25  18  74 SW7       29.98S WCI  17
LAKEVILLE      FAIR      23  18  80 W8        30.01F WCI  14
EDEN PRAIRIE   FAIR      21  14  74 SW9       30.00F WCI  11
SOUTH ST PAUL  FAIR      24  17  73 CALM      30.01S
LAKE ELMO      FAIR      23  18  80 SW8       30.00F WCI  14
$$
MNZ001>005-007-008-013>017-022>024-027-028-180900-
   Northwest Minnesota

CITY           SKY/WX    TMP DP  RH WIND       PRES   REMARKS
BEMIDJI        FAIR      31  22  69 SW12      29.73F WCI  22
HALLOCK        CLOUDY    34  28  80 W15       29.69R WCI  24
ROSEAU         FLURRIES  34  28  80 W10       29.65F WCI  26
WARROAD        LGT SNOW  32  28  86 SW13G18   29.65F WCI  22
THIEF RVR FALL CLOUDY    31  24  75 SW18      29.75F WCI  19
CROOKSTON      FAIR      30  25  80 W9        29.79R WCI  22
FOSSTON        MOCLDY    25  19  80 S18       29.77F WCI  11
DETROIT LAKES  FAIR      32  23  69 SW7       29.84F WCI  26
MOORHEAD       FAIR      30  23  74 SW10      29.85F WCI  21
PARK RAPIDS    MOCLDY    29  21  72 SW13      29.80F WCI  19
MAHNOMEN       FAIR      25  20  81 S15       29.80F WCI  13
$$
MNZ006-009>011-018-025>026-180900-
   North Central Minnesota

CITY           SKY/WX    TMP DP  RH WIND       PRES   REMARKS
BAUDETTE       LGT SNOW  31  29  92 SW13G25   29.64S FOG     WCI  21
FLAG ISLAND    CLOUDY    30  28  93 SW17G23   29.60F WCI  18
INTL FALLS     CLOUDY    28  22  78 SW6       29.66F WCI  22
WASKISH        CLOUDY    30  25  80 SW15      29.69S WCI  19
BIG FORK       FAIR      27  21  80 S9        29.71F WCI  17
LONGVILLE      FAIR      28  21  74 SW7       29.79F WCI  21
GRAND RAPIDS   FAIR      29  22  75 SW8       29.79F WCI  21
CRANE LAKE     FAIR      21  19  93 CALM      29.72F
ORR            FAIR      23  19  86 CALM      29.69F
COOK           FAIR      25  21  86 SW5       29.72F WCI  19
WALKER         FAIR      32  22  66 SW14      29.77F WCI  22
$$
MNZ012-019>021-037-180900-
   Northeast Minnesota

CITY           SKY/WX    TMP DP  RH WIND       PRES   REMARKS
DULUTH         FAIR      25  19  78 W14       29.80F WCI  13
ELY            FAIR      21  18  86 SW6       29.74S WCI  14
HIBBING        FAIR      20  17  88 S5        29.76F WCI  13
EVELETH        FAIR      20  15  80 SW5       29.77F WCI  14
DULUTH HARBOR  FAIR      25  19  80 SW13      29.86S WCI  13
TWO HARBORS    FAIR      21  16  79 SW5       29.78F WCI  15
GRAND MARAIS     N/A     25  17  72 W6        29.79S WCI  18
G MARAIS ARPRT CLOUDY    18  12  79 SW5       29.72S WCI  11
$$
MNZ029>031-032-039>041-046>048-054>057-064-180900-
   West Central Minnesota

CITY           SKY/WX    TMP DP  RH WIND       PRES   REMARKS
FERGUS FALLS   FAIR      19  18  93 SE6       29.91S WCI  11
WHEATON        CLOUDY    30  21  69 SW12      29.94F WCI  21
MORRIS         CLOUDY    25  19  80 SW6       29.93F WCI  18
ALEXANDRIA     FAIR      25  20  81 SW7       29.92F WCI  17
ELBOW LAKE     FAIR      20  17  91 S9        29.92F WCI   9
WADENA         FAIR      27  21  80 W10       29.87F WCI  17
GLENWOOD       FAIR      25  21  86 SW13      29.94F WCI  13
APPLETON       CLOUDY    27  19  74 W10       29.96F WCI  17
BENSON         CLOUDY    19  16  86 SW5       29.97F WCI  13
ORTONVILLE     PTCLDY    30  21  69 CALM      29.97F
MADISON        CLOUDY    28  21  74 W7        29.98F WCI  21
WILLMAR        FAIR      12  10  92 SW3       30.00F
$$
MNZ033>034-036-042>043-049>051-058-059-180900-
   Central Minnesota

CITY           SKY/WX    TMP DP  RH WIND       PRES   REMARKS
ST CLOUD       FAIR      23  18  81 SW7       29.95F WCI  15
SAUK CENTRE      N/A     24  19  83 SW3       29.94F
PAYNESVILLE    FAIR      26  22  85 SW10      29.96F WCI  15
AITKIN         FAIR      27  19  74 SW7       29.84F WCI  19
PINE RIVER     FAIR      27  19  74 CALM      29.87F
BRAINERD       FAIR      26  19  74 SW12      29.87F WCI  16
STAPLES        FAIR      28  19  69 W8        29.88F WCI  20
LONG PRAIRIE   FAIR      25  19  80 S7        29.92F WCI  17
LITTLE FALLS   FAIR      27  18  69 SW3       29.92F
LITCHFIELD     FAIR      21  18  86 CALM      29.98F
BUFFALO        FAIR      21  16  81 SW8       29.99F WCI  12
MAPLE LAKE     FAIR      23  19  85 MISG      29.98F
HUTCHINSON     FAIR      21  17  84 SW6       30.01F WCI  13
$$
MNZ037-044-045-052-053-180900-
   East Central Minnesota

CITY           SKY/WX    TMP DP  RH WIND       PRES   REMARKS
PRINCETON      FAIR      23  18  80 SW3       29.95S
MORA           FAIR      23  18  80 SW6       29.94S WCI  16
CAMBRIDGE      FAIR      25  16  68 S7        29.95F WCI  17
RUSH CITY      FAIR      25  19  77 SW5       29.94F WCI  19
MOOSE LAKE     FAIR      18  14  86 CALM      29.86S
HINCKLEY       FAIR      23  19  86 SW7       29.91F WCI  15
CLOQUET        FAIR      25  18  74 SW8       29.83S WCI  16
MCGREGOR       FAIR      30  23  74 SW9       29.85F WCI  22
$$
MNZ071>073-080-081-089-090-097-098-180900-
   Southwest Minnesota

CITY           SKY/WX    TMP DP  RH WIND       PRES   REMARKS
MONTEVIDEO     CLOUDY    25  19  80 W5        29.98F WCI  19
GRANITE FALLS  CLOUDY    24  19  81 SW6       30.00F WCI  17
CANBY          CLOUDY    34  24  66 SW12      29.99F WCI  25
MARSHALL       CLOUDY    28  21  75 W10       30.00F WCI  19
REDWOOD FALLS  CLOUDY    21  16  81 SW7       30.01F WCI  12
OLIVIA         CLOUDY    18  14  86 SW7       30.00F WCI   8
PIPESTONE      CLOUDY    18  14  86 W7        30.04F WCI   8
WINDOM         CLOUDY    21   7  53 SW10      30.05R WCI  10
WORTHINGTON    CLOUDY    20  15  81 SW14      30.06S WCI   7
JACKSON        CLOUDY    23  18  80 SW15      30.06R WCI  10
SLAYTON        CLOUDY    25  19  80 SW16      30.03F WCI  12
$$
MNZ065>067-074>077-082>085-091>093-180900-
   South Central Minnesota

CITY           SKY/WX    TMP DP  RH WIND       PRES   REMARKS
MANKATO        FAIR      22  16  78 S12       30.05S WCI  10
NEW ULM        CLOUDY    18  12  79 SW8       30.03S WCI   7
ST JAMES       CLOUDY    21  18  86 SW9       30.05F WCI  11
FAIRMONT       CLOUDY    23  17  78 W10       30.06F WCI  12
FARIBAULT      FAIR      19  16  86 S5        30.04S WCI  13
OWATONNA       FAIR      19  16  86 SW10      30.04S WCI   8
WASECA         FAIR      18  14  86 SW8       30.06S WCI   7
ALBERT LEA     FAIR      21  14  73 SW8       30.05F WCI  12
$$
MNZ078>079-086>088-094>096-180900-
   Southeast Minnesota

CITY           SKY/WX    TMP DP  RH WIND       PRES   REMARKS
ROCHESTER      FAIR      19  14  81 SW16      30.02F WCI   4
RED WING       FAIR      18  12  79 CALM      30.03S
STANTON        FAIR      22  16  78 S7        30.02S WCI  13
DODGE CENTER   FAIR      18  12  79 SW10      30.03S WCI   6
WINONA         FAIR      23  16  74 W3        30.06S
AUSTIN         FAIR      18  12  79 SW6       30.06F WCI   9
PRESTON        FAIR      19  12  76 W6        30.05F WCI  10
$$
ABBREVIATIONS USED IN REMARKS
   TC - TEMPERATURES IN CELSIUS
  WCI - WIND CHILL INDEX
   HX - HEAT INDEX
  VSB - VISIBILITY
$$




USA.gov is the U.S. government's official web portal to all federal, state and local government web resources and services.